FREGAT DEB, 46243

Orbit data source: Space-Track

FREGAT DEB, 46243 is space debris in LEO originally from a launch on Mon, 18 Jul 2011 UTC launched from the Tyuratam Missile And Space Complex (TTMTR). Debris objects in space refer to the collection of defunct objects orbiting the Earth. Examples of debris include non-operational satellites, rocket bodies, and fragments generated from explosions, collisions, or faulty payload assembly.

Loading next visibility...
Identifier
46243, 2011-037KD
Orbit
LEO
Country
Flag of CISCIS
Related business
Manufacturer
Lavochkin
Mission
Spacecraft
Bus & Motor
Unknown
Mass
Unknown
Launch date (UTC)
2011-07-18 (15 years ago)
Launch vehicle
Unknown
Launch site
Tyuratam Missile And Space Complex (TTMTR)
Object type
Payload
Rocket body
Debris
Shape & HBR
Unknown shape, 1.1 m
Radar Cross Section
Medium (>0.1 m² and <1 m²)

Expand to show TLE details & history
Last TLE update: 16 hours ago

TLE from 16 hours ago
0 FREGAT DEB
1 46243U 11037KD  26256.25422289  .00001067  00000-0  35222-1 0  9995
2 46243  51.8882 329.4052 1320817  62.7843 310.1275 10.03993462 86943
Epoch: 2026-09-13T06:06Z
TLE epoch observation values (Epoch: 2026-09-13T06:06:04.857Z)
Latitude
-0.00003°
Longitude
-114.36657°
Altitude
2,031.19 km
Speed
7.135 km/s
True Right ascension
21h 57m 37s
True Declination
0° 00' 00"
Sunlit
Object was in full shadow at epoch
Visualization orbit readout
Latitude
Unknown
Longitude
Unknown
Altitude
Unknown
Speed
Unknown
Apparent Right ascension
Unknown
Apparent Declination
Unknown
Sunlit
N/A
Visualization observer readout
Local Sidereal Time
14:39:53
Azimuth
Unknown
Elevation
Unknown
Doppler factor
Unknown
Orbital elements
Apogee altitude
3,897.521 km
Perigee altitude
1,499.768 km
Semi-major axis
9,076.781 km
Eccentricity
0.13208
Inclination
51.8882°
RAAN
329.4052°
Arg. of periapsis
62.7843°
True anomaly
297.29367°
Mean anomaly
310.1275°
Eccentric anomaly
303.84192°
Mean motion
2.50984 °/min
Orbital period
143.44 mins
BSTAR
0.035222
Loading maneuver chart data...
Computing Atmospheric mass density...
Loading historical data...
Loading historical data...
Loading historical data...
Loading historical data...
Loading historical data...
Loading historical data...
Loading historical data...

Documentation

Showing up to 5 results
|